GFSFLT2_sfc_rhum_045.txt.gz
RH
94 85 86 88 89 89 87 86 85 84 85 87 87 85 83 80 78 80 82 80 79 79 80 80 75 77 78 76 69 69 30 29
97 95 86 86 85 91 91 91 90 89 88 87 84 81 81 82 79 78 79 80 81 81 81 79 77 77 77 75 69 63 28 26
95 97 91 85 86 88 88 90 89 87 81 83 73 50 41 52 74 83 82 84 84 83 81 80 79 74 68 63 65 27 25 25
91 87 83 81 71 75 71 64 60 59 55 62 44 53 43 42 69 86 86 85 85 83 78 76 66 31 32 53 27 28 25 26
92 86 84 84 85 88 73 56 55 58 60 60 51 49 52 44 51 47 53 60 39 45 44 36 37 32 33 34 30 27 24 22
92 93 92 91 92 89 83 58 60 60 60 59 62 44 51 46 41 42 45 41 42 39 37 44 41 39 39 36 35 29 23 19
91 90 88 89 91 86 72 54 56 52 49 48 53 48 52 43 42 41 41 40 41 40 42 39 41 39 34 34 30 28 26 20
86 89 88 80 74 82 83 80 64 58 49 53 56 44 51 42 46 41 42 40 39 39 39 40 38 35 38 33 28 24 26 28
89 88 79 66 64 61 55 72 56 58 51 61 53 53 56 50 48 46 43 42 43 41 44 40 36 30 33 28 24 27 24 26
65 47 50 67 58 49 44 47 46 40 41 48 56 50 50 54 49 48 46 47 44 44 43 40 34 32 30 26 26 26 28 28
56 61 65 73 65 49 48 47 42 36 40 42 55 55 56 54 49 49 53 46 46 44 43 40 36 30 26 27 30 28 28 20
53 53 60 69 70 49 43 38 42 36 37 41 52 52 57 57 48 52 53 47 47 46 46 39 32 31 20 22 33 34 30 30
48 54 55 64 63 48 42 41 38 37 39 44 49 52 56 56 47 53 54 48 49 50 47 45 37 33 34 37 36 40 40 33
46 47 49 58 60 49 40 38 34 36 40 54 61 56 54 54 53 52 55 48 52 54 49 42 37 36 43 44 50 44 39 38
42 43 47 48 45 44 41 37 37 38 41 47 63 59 52 54 54 52 53 50 52 54 49 46 39 42 47 54 64 50 35 34
42 42 42 52 47 48 46 39 41 43 51 57 58 64 58 51 51 54 55 52 52 52 43 44 43 49 52 44 51 45 41 38
45 42 41 42 45 46 50 47 42 41 45 58 64 57 60 55 54 58 60 53 52 52 46 47 46 56 51 57 46 43 44 46
47 44 42 42 44 48 52 54 53 55 66 60 54 56 60 59 53 60 63 60 54 48 48 64 60 60 66 45 41 38 38 40
43 42 40 43 51 63 62 65 70 81 81 73 66 66 66 64 61 66 67 67 59 50 69 69 74 69 65 46 36 39 37 36
42 41 43 41 58 73 81 73 81 84 91 91 84 82 80 69 71 73 69 65 66 72 67 66 76 71 66 46 42 39 42 40

GFSFLT2_sfc_rhum_048.txt.gz
RH
91 93 92 94 92 89 88 87 87 86 86 87 87 84 84 86 87 86 83 82 81 81 81 81 79 75 69 70 75 73 57 43
95 94 91 84 88 91 90 91 92 91 88 86 85 83 83 84 85 82 81 81 81 82 83 82 78 74 67 63 67 70 41 46
96 97 92 92 90 88 89 91 90 86 82 82 74 60 60 63 82 84 84 84 83 82 81 79 74 67 66 67 66 45 39 52
96 92 87 82 86 87 86 79 77 74 68 68 58 65 63 64 82 86 88 86 84 80 78 76 69 52 56 66 46 43 44 58
93 92 86 83 86 87 86 89 74 74 75 67 70 66 68 74 80 73 83 78 64 67 72 60 54 57 57 55 50 47 45 50
88 87 84 85 85 86 88 82 72 73 72 72 77 74 68 66 65 69 70 66 63 63 64 64 58 54 51 51 48 43 40 52
94 93 93 89 87 93 89 78 70 69 68 68 68 72 73 67 67 62 61 61 63 66 65 59 58 53 51 47 40 39 38 45
93 94 94 92 94 88 92 78 72 64 62 72 68 74 72 69 68 66 65 64 64 63 63 62 61 55 52 42 40 39 37 38
93 95 93 92 87 93 89 75 68 75 72 71 71 70 69 72 72 71 68 66 65 64 61 63 57 50 48 42 42 36 38 36
85 83 89 92 93 92 71 62 72 70 72 78 71 70 70 74 75 72 71 71 68 69 66 65 64 56 54 47 43 40 38 37
85 83 80 82 72 45 52 60 69 63 65 66 73 71 70 75 76 75 74 72 74 68 71 68 63 55 49 48 48 48 45 31
68 64 65 72 72 50 48 57 57 60 55 54 65 71 73 79 80 77 80 74 74 72 70 65 62 58 31 37 54 54 52 51
58 58 63 76 77 66 66 60 60 58 55 54 66 65 73 79 81 78 82 75 74 74 72 66 60 55 55 60 64 64 58 56
62 63 65 69 74 67 60 57 53 52 55 56 68 72 70 73 78 75 79 77 75 76 73 72 70 65 68 71 76 70 68 61
61 58 58 61 69 62 58 54 56 52 54 70 74 73 72 71 75 78 79 78 80 80 77 73 70 69 65 74 79 77 64 67
54 53 53 54 63 66 62 52 52 51 59 64 69 76 76 69 70 76 77 82 79 80 70 74 72 75 79 62 64 68 70 69
53 51 50 52 55 62 64 62 58 59 55 73 75 80 79 77 76 79 83 83 82 79 76 76 74 76 72 74 70 69 74 74
53 50 48 51 58 60 73 72 64 68 77 82 84 82 80 83 74 81 83 83 82 78 71 70 79 75 71 67 66 64 60 66
53 53 50 52 62 62 65 73 74 74 77 88 96 99 98 88 81 83 87 82 80 74 76 84 79 82 77 69 66 58 59 58
54 52 53 50 57 69 70 67 80 80 80 96 94 93 91 88 90 86 88 79 78 83 85 87 86 87 73 72 69 77 69 62

GFSFLT2_sfc_rhum_051.txt.gz
RH
97 97 96 98 95 92 90 88 88 89 88 88 90 91 90 89 86 84 84 83 82 80 79 76 71 69 70 72 77 68 58 58
96 96 95 94 94 94 94 92 92 90 88 88 89 91 91 89 87 84 83 82 81 80 80 74 68 63 62 68 73 68 62 67
95 94 92 92 88 92 91 90 89 86 84 84 83 82 82 79 84 85 84 83 82 81 78 72 68 60 58 64 63 60 71 80
96 94 92 88 86 92 92 85 83 79 74 70 64 74 77 78 85 87 85 83 81 80 77 72 66 55 60 62 53 64 74 85
95 93 92 86 90 87 88 92 80 73 72 70 73 75 79 83 84 87 90 84 78 78 76 64 59 63 58 57 48 55 67 75
91 90 90 91 69 76 87 89 77 79 75 75 77 84 72 78 76 78 76 80 69 69 70 68 64 54 54 50 41 47 63 69
89 89 92 92 92 92 91 92 76 76 86 80 70 74 76 70 73 71 69 75 68 72 72 65 59 55 54 45 42 40 54 62
93 93 92 89 92 83 88 90 70 76 74 72 75 77 86 75 75 71 77 68 71 73 68 64 62 56 51 41 40 43 43 62
91 89 86 85 88 86 87 91 74 77 67 71 72 72 73 77 89 86 88 78 72 68 70 68 67 59 50 44 42 41 40 40
86 80 89 87 88 91 79 72 77 73 73 77 70 71 75 79 86 85 91 77 73 73 74 73 68 63 58 50 51 46 39 37
87 88 87 86 82 75 69 74 77 75 73 74 72 72 74 77 83 84 80 78 78 73 73 72 74 65 53 56 53 54 44 36
85 84 81 82 83 66 72 70 75 77 75 72 78 74 76 84 87 90 89 81 79 82 77 76 70 61 39 45 58 56 57 55
82 82 74 76 81 67 62 61 68 72 74 64 72 77 81 83 92 86 92 83 81 79 79 71 64 60 57 62 66 66 60 60
76 73 71 69 84 50 50 61 70 66 65 67 68 77 79 87 90 90 90 90 86 84 76 76 69 65 62 81 78 75 75 65
64 61 62 63 77 69 59 63 69 71 73 66 67 76 82 85 87 92 93 95 92 87 81 71 73 75 70 76 84 83 76 74
61 56 55 59 70 72 66 72 66 60 64 72 85 80 82 82 84 87 91 94 92 92 83 80 72 68 79 68 74 72 70 72
63 59 58 60 68 68 78 81 63 64 58 77 82 92 90 89 91 94 91 89 93 91 85 79 81 80 78 76 77 74 72 70
64 64 64 62 65 66 74 83 79 68 76 73 91 95 96 93 94 95 92 96 94 90 83 81 84 82 76 74 75 75 71 77
61 62 63 60 63 63 72 84 79 71 88 80 93 94 98 97 96 96 96 94 89 86 83 85 86 89 90 91 84 79 70 72
57 58 58 57 62 66 66 71 81 84 86 94 90 91 93 93 95 93 92 91 86 85 89 90 91 94 90 90 91 78 74 67

GFSFLT2_sfc_rhum_054.txt.gz
RH
93 93 94 96 95 95 92 90 90 89 88 87 88 89 87 84 84 84 83 81 78 76 75 72 72 72 78 76 74 73 72 68
96 96 97 93 94 91 87 93 92 93 94 94 94 92 89 87 85 84 82 80 77 75 72 70 71 71 76 77 77 74 75 76
97 96 95 94 92 89 82 90 90 91 92 93 92 91 88 79 84 84 82 81 77 75 74 74 68 72 72 76 73 78 82 85
97 93 92 90 85 86 90 87 84 83 82 83 83 88 83 81 85 85 83 80 78 75 74 70 64 62 62 69 74 83 90 93
96 96 95 90 88 82 88 85 77 74 71 75 80 84 87 86 83 83 83 81 77 72 68 62 61 61 56 59 67 76 86 90
94 94 94 92 85 87 86 77 71 72 71 82 82 82 77 80 80 85 78 76 73 73 71 70 63 56 51 49 57 67 80 82
91 91 92 90 86 95 91 82 69 78 85 81 70 73 78 75 77 81 77 76 72 72 74 70 60 57 51 43 47 57 59 66
92 91 94 89 90 90 92 87 75 81 78 74 79 74 81 76 81 76 77 76 71 74 73 68 62 55 45 43 47 53 58 57
93 94 91 87 88 89 91 83 69 70 76 81 81 76 77 84 92 92 89 79 74 76 74 70 66 58 48 46 45 46 55 59
90 86 88 86 82 80 71 77 83 70 77 80 80 76 78 85 91 94 95 91 82 77 77 76 71 69 58 53 48 48 44 48
92 89 83 83 84 72 74 74 77 75 69 73 74 76 81 81 89 92 92 89 83 74 80 75 77 73 61 59 57 54 47 40
80 86 79 82 80 71 72 76 74 77 70 75 76 77 76 85 88 94 93 90 85 81 77 84 77 73 46 51 60 61 56 56
80 83 84 83 79 73 72 73 71 73 76 73 73 81 77 82 93 95 95 93 89 84 83 80 72 69 60 63 65 69 68 65
80 79 79 77 78 67 65 64 73 78 74 74 76 81 83 87 92 94 92 93 87 89 83 82 75 68 62 72 66 75 79 71
86 82 74 74 83 70 66 70 80 80 81 79 76 80 83 87 91 94 95 94 91 93 88 80 75 72 67 67 81 80 77 74
78 77 72 70 75 76 57 54 57 61 76 73 74 82 85 84 87 94 96 95 94 93 92 89 81 77 78 69 70 70 69 65
73 70 69 64 64 76 70 69 64 69 78 77 74 91 86 84 88 95 96 95 93 95 94 92 88 84 77 84 79 78 72 71
68 66 66 62 61 73 77 76 77 78 81 82 84 84 94 92 88 94 96 95 95 96 96 94 88 83 85 88 91 88 88 92
69 63 62 60 60 67 71 75 76 82 82 80 82 88 97 94 91 94 94 96 95 95 94 93 87 90 92 93 93 91 86 82
66 66 60 58 61 68 68 66 74 82 83 84 83 85 88 93 94 95 97 97 96 95 94 91 90 93 92 92 93 92 81 78

GFSFLT2_sfc_rhum_057.txt.gz
RH
95 90 90 94 94 92 90 87 87 86 86 84 85 85 84 82 82 80 76 73 72 71 74 77 78 77 78 80 79 76 80 76
97 97 96 95 96 92 89 88 88 85 86 92 91 89 87 85 82 78 75 74 73 72 75 80 81 80 78 79 80 76 82 84
98 98 96 95 92 85 83 86 96 92 95 95 92 88 87 82 81 80 78 79 78 75 73 78 80 79 79 80 76 84 87 87
98 97 96 92 85 82 82 86 92 92 91 93 91 92 83 81 83 82 80 80 78 77 75 70 66 76 79 77 86 88 90 91
98 94 90 85 83 92 78 91 95 96 94 91 91 90 85 82 81 81 81 77 69 65 66 66 56 64 72 81 86 91 96 95
96 93 95 89 79 78 79 86 84 93 92 87 90 88 80 82 83 88 79 76 71 69 73 66 61 57 65 72 76 83 94 95
98 95 94 90 85 86 94 85 81 85 92 88 81 75 79 86 85 83 76 75 70 70 73 66 64 56 50 58 62 70 72 78
97 97 95 92 93 95 94 90 85 86 84 79 76 75 80 77 81 76 78 72 71 74 76 68 64 53 50 49 57 58 58 60
94 95 90 91 94 95 93 86 75 76 73 78 76 75 74 79 90 90 88 80 72 79 77 72 67 55 47 49 54 59 62 56
93 93 88 90 90 91 76 80 77 74 76 79 83 79 74 83 89 91 91 89 81 84 82 79 72 67 57 54 52 52 58 59
96 94 87 81 82 78 77 78 78 79 85 83 82 76 78 80 87 92 93 95 91 85 85 81 78 75 64 59 58 56 51 47
94 92 94 85 84 89 86 76 76 78 77 79 85 84 85 88 92 94 94 96 96 88 82 84 80 76 55 55 62 63 59 59
86 93 93 91 72 86 80 77 73 73 77 71 77 83 84 90 94 95 95 93 90 85 86 85 84 78 65 65 67 66 67 66
83 83 86 84 73 60 65 67 69 72 71 72 72 79 82 86 92 96 95 94 91 93 88 89 85 75 68 65 68 70 82 76
83 80 76 73 72 72 70 64 68 75 74 78 76 76 80 87 91 95 96 95 92 93 92 88 90 81 70 70 80 80 72 72
81 82 80 79 80 77 69 60 56 71 78 78 76 80 82 87 90 94 95 95 95 92 92 92 92 86 82 80 77 79 75 76
89 84 78 74 81 82 78 77 69 69 79 82 84 86 88 89 92 94 95 96 95 96 98 95 94 94 90 90 86 83 90 92
91 87 82 74 76 85 87 77 78 80 84 92 90 90 92 92 92 93 94 96 97 98 97 96 96 97 93 93 91 94 95 93
85 83 82 76 73 72 82 85 78 76 78 87 90 93 94 92 93 96 94 94 96 96 96 96 98 96 92 88 92 91 88 86
81 77 77 73 74 71 70 76 79 75 75 83 92 89 88 92 95 94 93 97 98 98 98 98 96 95 90 92 95 92 87 82

GFSFLT2_sfc_rhum_060.txt.gz
RH
97 91 88 91 85 84 84 86 83 84 84 83 82 83 81 81 81 76 76 82 82 82 80 79 79 78 80 81 81 77 82 79
97 96 92 94 95 89 87 86 85 86 87 88 91 88 84 81 76 74 74 76 80 81 80 78 79 80 80 82 82 78 82 82
98 97 94 93 88 88 87 86 78 87 88 92 92 89 89 82 75 76 77 77 80 82 82 81 80 80 81 82 77 83 86 85
99 98 98 96 93 89 81 79 74 76 88 90 92 94 88 79 80 79 76 77 78 84 85 84 82 88 83 78 86 87 89 89
98 97 97 97 96 91 78 71 86 79 92 93 91 92 89 88 81 80 74 74 61 64 66 67 78 82 83 88 89 92 94 92
97 98 98 95 78 79 76 66 77 95 94 91 88 88 89 92 84 88 80 76 72 71 66 69 73 74 81 86 90 94 95 94
98 96 92 86 78 74 86 79 86 94 94 90 80 81 83 87 82 77 79 75 75 72 67 63 65 66 72 78 80 85 88 89
97 93 94 90 82 93 97 90 92 96 96 94 82 78 84 74 79 78 78 74 72 72 66 68 61 55 61 65 66 70 69 71
98 97 93 89 85 97 92 84 89 96 96 93 83 83 82 82 85 88 87 75 77 79 73 69 64 52 53 56 60 61 61 60
96 97 96 96 94 96 88 86 89 89 93 86 81 79 79 85 89 87 91 85 83 84 79 74 68 61 56 55 57 61 63 60
98 95 95 95 95 92 90 85 82 89 85 79 83 76 81 79 84 89 91 92 87 84 87 79 75 72 59 58 57 57 59 53
96 95 94 92 92 91 88 82 86 85 85 80 83 76 80 82 91 91 93 94 94 91 88 87 80 76 57 55 62 63 61 61
92 94 96 90 85 88 92 90 79 80 79 83 84 87 88 90 93 94 96 95 93 89 88 86 84 78 70 68 69 68 68 65
89 85 90 93 88 72 83 85 76 74 76 76 79 86 88 92 94 94 95 96 93 92 88 94 89 82 76 73 69 67 76 71
86 84 85 87 86 84 70 69 86 74 75 74 75 75 83 88 92 96 96 95 94 95 91 88 92 90 78 82 80 80 77 77
82 80 77 74 79 80 71 64 78 71 71 71 74 77 82 82 90 93 95 97 95 94 93 92 92 92 87 83 83 80 82 78
81 85 76 72 77 70 78 82 70 74 76 76 76 85 86 88 91 93 95 97 96 95 96 96 95 95 90 93 89 87 89 91
85 91 83 80 84 82 80 80 78 75 78 88 88 90 91 91 92 94 95 96 96 96 97 98 97 93 93 92 93 94 93 95
96 91 90 82 85 84 84 85 83 78 81 86 90 92 94 93 93 95 97 95 95 96 97 97 97 96 96 96 94 87 91 91
93 94 91 86 83 84 85 86 82 78 81 90 94 93 93 90 93 94 95 94 95 96 97 97 98 97 97 97 94 93 91 91

GFSFLT2_sfc_rhum_063.txt.gz
RH
90 83 88 89 87 77 85 87 86 85 83 80 81 80 81 80 77 79 80 84 83 80 81 80 79 79 79 83 82 74 48 48
87 90 88 90 84 90 86 85 88 86 84 82 83 81 83 83 81 84 84 85 82 80 81 80 80 81 82 83 83 75 48 48
93 96 92 89 85 87 87 83 85 87 87 88 84 71 71 63 70 85 85 83 80 80 81 82 82 82 82 81 74 48 49 48
98 97 97 94 89 88 89 86 85 84 85 81 76 79 69 52 70 84 84 84 82 81 82 83 65 50 57 69 48 54 50 49
98 98 98 97 95 96 95 97 94 86 88 81 77 70 71 61 61 59 68 74 60 64 64 50 56 52 50 52 56 55 50 49
98 96 96 97 97 95 91 74 88 92 91 78 73 71 68 68 55 56 56 55 64 61 55 60 59 55 56 60 58 52 52 50
97 95 96 97 95 94 96 78 84 91 88 77 68 66 70 62 61 51 49 53 54 58 56 55 57 57 56 56 59 59 61 53
98 96 94 90 90 89 88 84 86 93 88 79 70 70 72 65 59 54 53 49 47 50 52 53 50 52 58 56 56 55 58 62
98 97 89 86 81 91 93 88 82 91 85 79 72 71 71 63 59 57 62 62 56 52 53 50 46 44 50 50 49 51 47 52
97 92 91 84 92 96 88 89 84 86 94 78 72 68 67 69 65 66 67 66 54 52 51 47 44 40 42 42 42 41 44 44
97 92 91 86 93 95 93 91 86 88 84 86 74 69 69 65 61 72 70 72 67 58 58 54 50 46 40 41 42 41 46 38
95 93 91 88 96 91 94 94 84 91 84 76 69 67 71 70 68 75 72 71 74 65 69 63 57 54 38 40 45 43 44 48
93 96 97 93 97 94 95 95 78 80 84 78 72 70 70 72 74 75 75 74 75 78 77 72 67 65 59 55 52 54 51 42
91 90 92 92 90 82 78 82 75 78 78 74 69 76 70 69 72 78 75 79 80 78 77 76 67 66 61 57 61 57 52 48
86 86 88 90 86 86 85 80 84 74 76 70 73 74 73 75 77 85 86 85 87 83 80 78 77 73 63 59 65 64 54 53
79 81 84 88 86 85 82 69 76 73 73 66 74 76 75 74 81 89 88 86 86 87 83 79 76 73 71 57 65 59 61 65
77 79 74 82 80 75 73 75 69 76 75 72 70 75 74 72 80 79 84 80 82 82 83 82 78 76 72 73 70 62 69 81
76 77 72 75 79 76 75 75 75 76 78 78 79 77 82 77 74 79 80 80 81 81 81 82 82 81 82 82 73 86 74 85
76 73 72 72 76 74 73 69 70 70 72 71 74 73 75 76 74 79 78 76 77 77 81 83 84 89 93 92 89 85 74 80
76 75 75 72 73 69 67 66 64 62 64 64 67 66 64 66 69 70 71 73 76 79 81 82 85 97 96 95 91 88 84 76

GFSFLT2_sfc_rhum_066.txt.gz
RH
74 65 73 88 74 89 91 88 87 84 84 83 83 84 84 83 83 83 84 82 80 81 81 81 79 79 79 81 79 70 33 34
76 78 76 66 70 92 86 86 88 85 85 85 86 84 83 83 82 86 86 83 81 82 82 82 80 81 81 82 76 69 34 33
78 76 77 76 54 72 85 80 84 88 86 87 84 66 63 65 70 87 85 82 81 82 83 83 83 83 82 79 76 34 34 33
85 87 82 84 86 74 74 82 88 87 83 78 69 73 61 48 72 87 86 82 83 83 84 83 65 42 47 67 32 38 35 36
86 92 96 94 89 96 94 97 94 89 83 78 76 76 51 53 63 64 59 69 48 56 58 38 38 36 36 35 41 39 36 36
93 95 98 97 99 96 95 96 96 94 82 82 76 65 61 61 49 48 50 44 48 46 41 42 42 38 37 42 41 36 36 38
87 98 97 95 97 98 95 92 90 92 89 77 63 61 65 58 50 45 44 43 45 44 42 42 42 40 39 39 40 40 42 36
92 97 97 95 96 95 96 97 90 94 91 75 70 61 66 51 50 44 42 44 42 40 41 39 37 38 41 39 39 40 42 43
94 96 95 97 95 95 96 96 89 92 87 72 64 57 59 57 46 46 42 39 43 39 42 37 35 35 40 39 37 40 39 42
96 91 89 92 95 94 88 88 88 89 91 67 60 58 60 60 52 42 41 43 41 41 40 39 38 36 37 35 32 34 37 39
94 88 94 94 94 91 88 84 84 90 89 56 54 60 61 59 53 50 56 45 43 41 41 42 41 37 34 32 33 31 35 28
89 88 91 86 86 94 92 89 87 86 91 58 51 45 51 48 46 55 55 52 48 45 50 48 45 41 30 34 38 35 33 34
90 94 90 80 81 93 93 91 85 85 79 75 63 56 60 57 52 60 58 53 54 56 57 60 55 52 45 44 44 44 42 34
93 85 78 76 76 77 59 79 70 76 71 78 68 61 69 69 60 58 54 52 60 64 62 61 57 59 52 49 55 52 46 43
87 89 82 74 76 78 73 77 79 79 80 74 68 68 69 69 67 59 58 57 59 62 63 61 63 62 60 56 54 51 45 44
77 82 88 83 81 83 73 73 71 56 60 71 68 69 70 65 64 62 70 75 73 67 62 64 75 64 59 52 54 48 47 46
71 74 81 85 82 81 81 75 65 66 68 66 73 78 72 71 72 70 77 79 74 78 77 73 62 69 55 54 58 55 57 58
65 65 71 82 84 84 80 70 68 66 76 78 76 80 76 81 77 79 78 77 71 74 67 74 65 67 63 61 61 61 66 64
66 62 63 74 83 77 74 72 75 74 76 76 75 78 80 77 69 66 68 64 67 73 70 62 63 66 67 67 66 69 77 89
62 58 56 64 71 70 62 64 66 60 68 69 74 69 64 69 73 67 68 60 56 57 63 57 63 66 69 68 70 79 92 82

GFSFLT2_sfc_rhum_072.txt.gz
RH
80 82 87 92 94 94 87 91 94 92 88 86 85 84 83 82 82 83 85 86 85 83 84 82 80 76 74 74 74 70 45 52
84 82 84 91 90 91 90 86 89 86 90 87 87 85 84 84 84 85 86 86 84 82 85 83 81 78 74 73 75 64 44 51
83 86 83 80 92 90 85 89 86 97 89 89 88 77 81 81 82 87 86 86 86 86 86 85 81 75 76 77 75 43 47 56
86 88 84 83 85 91 92 94 96 98 87 85 75 80 83 78 85 88 87 87 87 87 86 81 69 65 66 70 64 44 50 59
87 86 88 87 88 92 94 93 96 97 87 81 79 83 89 90 84 83 87 86 79 79 76 58 55 59 61 63 60 47 53 59
81 85 87 89 95 95 95 95 97 98 94 90 90 93 93 93 69 76 70 68 68 67 63 61 56 54 58 58 56 49 58 64
83 83 90 96 94 96 95 96 98 98 94 92 93 92 92 88 65 64 62 62 60 60 61 52 56 52 59 55 51 52 58 62
82 85 89 94 98 97 98 96 97 97 97 93 93 93 92 92 69 60 64 59 57 57 58 57 57 56 60 55 52 51 56 63
89 89 93 96 95 98 98 97 94 95 94 89 90 90 91 87 79 64 63 58 58 60 57 59 60 49 55 58 58 56 54 62
88 88 95 97 98 98 97 97 96 94 94 94 89 88 88 84 74 66 60 59 60 61 60 62 61 59 60 59 58 58 58 60
89 91 92 95 97 98 97 95 95 94 92 92 90 86 79 72 85 77 70 61 69 58 65 63 64 60 57 60 60 60 62 48
89 89 91 95 97 96 96 96 95 95 94 93 85 80 71 71 76 74 78 70 70 66 63 64 61 61 35 48 59 61 61 63
90 92 96 95 96 98 97 97 96 94 92 84 85 81 66 72 77 78 71 70 69 70 71 68 68 67 64 67 64 60 61 58
91 87 93 89 88 88 86 90 88 84 84 85 79 75 68 69 72 73 75 74 74 74 73 80 76 73 70 72 78 74 68 65
91 87 87 84 81 81 83 83 93 89 79 82 82 67 64 65 70 72 76 75 75 78 80 78 86 80 76 85 87 88 85 72
82 84 83 82 79 82 85 87 90 77 68 68 84 76 65 60 64 69 72 73 80 86 84 79 87 86 86 80 87 85 86 96
81 79 80 78 77 75 80 81 77 72 63 66 84 83 74 67 75 78 76 76 85 88 84 85 84 90 84 91 84 86 86 86
80 81 80 77 78 74 76 77 76 75 71 72 82 78 81 77 78 81 85 86 85 85 84 84 91 89 83 86 85 80 85 91
81 82 81 81 80 78 74 76 74 78 72 69 77 78 78 79 74 82 76 79 86 89 91 88 88 90 89 85 78 87 82 87
75 77 80 79 83 81 76 73 71 70 72 66 65 72 75 74 76 75 74 77 79 82 84 87 87 89 88 83 73 80 84 79

GFSFLT2_sfc_rhum_075.txt.gz
RH
94 95 91 94 96 96 96 96 96 93 90 91 86 86 84 82 82 85 86 85 84 85 83 83 78 77 72 76 72 72 66 68
91 95 96 98 95 93 94 92 91 90 90 92 94 87 86 87 87 87 87 87 86 85 84 81 79 73 73 74 73 71 65 72
91 94 97 97 95 91 88 87 88 91 90 93 94 83 86 84 87 89 88 87 87 86 84 81 76 74 75 76 68 60 66 70
94 94 96 94 89 94 97 90 92 92 91 96 94 87 84 87 88 89 89 89 88 86 83 80 71 70 65 69 56 63 66 71
88 91 97 95 95 97 99 97 99 95 93 94 94 91 94 93 90 89 89 88 82 80 76 70 64 66 63 68 59 65 68 69
91 91 94 97 98 98 97 97 99 98 100 95 94 94 94 95 90 93 90 86 87 83 76 65 61 60 60 68 61 67 71 77
95 94 96 96 97 98 96 96 96 96 99 95 92 94 94 89 81 81 86 78 73 69 75 57 57 59 62 59 63 69 71 76
95 94 94 96 99 98 98 97 98 95 99 94 92 93 90 88 72 72 81 74 63 63 68 64 60 62 63 62 64 68 69 77
96 96 96 96 97 99 99 98 96 97 97 96 91 89 85 84 70 67 70 69 58 64 68 62 66 62 61 66 60 68 69 73
96 91 98 98 98 99 98 98 96 95 95 94 88 83 84 81 68 66 69 65 63 66 66 63 66 65 67 68 68 66 71 72
98 98 98 99 99 99 97 96 96 94 95 93 87 80 80 79 78 78 73 63 75 66 68 64 64 67 64 67 70 73 72 68
96 97 97 96 98 99 98 98 96 95 94 90 87 80 78 75 88 86 86 78 90 62 62 70 63 61 45 58 68 72 71 72
94 98 97 96 96 98 98 98 98 96 94 87 85 82 78 77 81 90 94 88 86 69 70 69 73 66 67 72 67 64 65 66
93 94 95 93 91 87 89 94 94 90 87 85 79 76 76 74 76 82 91 94 92 87 77 85 80 74 67 75 74 70 73 69
91 87 93 89 88 87 89 87 93 94 90 84 76 74 75 71 72 78 83 82 84 83 80 75 83 80 60 86 94 85 86 76
88 87 88 85 87 87 92 94 95 86 86 78 75 80 79 74 75 81 77 72 76 88 85 81 88 89 90 86 89 90 93 92
91 88 86 83 86 84 88 90 85 81 77 78 82 80 77 72 77 80 86 89 91 91 91 89 91 93 85 89 87 90 92 90
85 87 85 84 86 84 84 84 84 82 79 77 82 80 85 76 84 84 86 91 92 89 93 90 94 91 87 90 88 86 87 92
84 82 90 83 86 84 80 81 81 76 70 70 76 84 94 90 89 90 90 83 92 88 88 90 95 94 90 86 85 86 86 88
77 83 84 82 83 82 78 75 79 78 72 66 68 77 80 82 80 86 86 90 85 91 94 91 92 96 93 87 82 84 85 83

GFSFLT2_sfc_rhum_078.txt.gz
RH
96 96 97 97 93 92 93 94 96 96 92 86 92 92 85 86 86 86 84 84 87 85 83 80 79 78 80 81 80 78 73 73
96 96 98 99 99 95 94 95 93 93 92 90 85 94 91 87 88 87 84 84 87 85 82 80 79 80 80 81 80 79 79 82
97 97 98 97 98 97 94 92 91 91 88 88 98 94 87 88 88 88 87 87 88 86 82 81 80 78 80 80 75 71 74 80
96 99 99 96 94 96 98 97 94 91 91 95 95 95 89 85 89 90 90 89 89 86 82 82 71 67 69 73 70 70 74 81
96 98 98 98 97 99 99 100 98 95 93 92 94 96 96 92 91 89 91 89 85 85 80 71 67 66 63 70 71 72 75 76
92 94 99 97 98 98 97 99 96 97 95 93 97 98 96 93 86 90 89 83 88 84 80 73 69 66 64 71 72 73 79 83
97 96 98 98 95 97 98 98 98 96 95 92 93 95 93 92 84 95 94 94 86 76 71 64 68 68 63 69 74 76 79 81
96 95 97 98 97 98 97 97 97 96 99 95 89 92 94 95 92 87 91 86 76 76 79 67 67 69 65 70 74 76 76 84
96 95 96 98 98 98 98 95 97 98 97 95 94 91 91 89 81 78 76 85 79 81 78 70 67 68 68 73 75 76 79 81
97 96 97 98 98 99 99 98 96 96 96 96 91 85 83 79 71 72 70 68 70 81 83 75 70 72 72 73 77 78 77 80
98 99 97 99 97 99 99 98 97 96 94 95 92 80 77 66 64 71 67 59 68 73 81 72 73 75 70 77 79 84 82 74
98 99 94 98 99 98 99 99 98 97 95 93 89 82 74 68 76 85 74 67 81 77 75 74 66 71 53 69 82 85 87 86
98 99 98 98 98 98 99 98 98 97 93 86 83 80 78 73 68 89 81 80 79 74 74 67 82 75 75 77 75 82 85 84
97 97 97 91 92 93 95 96 97 95 94 87 81 79 74 76 70 84 86 87 91 86 75 86 81 71 69 77 78 73 73 73
92 92 95 97 92 89 93 96 98 99 97 95 90 84 77 76 81 80 87 81 87 90 84 68 84 81 63 84 91 76 82 80
95 89 92 92 92 88 91 94 96 95 93 89 84 82 80 80 80 84 88 81 88 90 87 82 88 79 86 86 85 89 89 94
88 88 90 88 88 93 86 90 85 89 88 90 87 86 87 81 85 84 83 83 88 90 92 90 90 91 69 94 91 94 91 90
89 88 89 89 87 89 90 85 86 89 88 88 86 83 85 85 85 83 84 83 82 86 87 89 91 91 90 87 86 89 92 93
88 89 89 87 91 88 89 93 87 85 84 84 84 82 91 83 84 85 85 84 82 81 85 92 93 93 90 91 88 85 87 90
91 89 88 87 90 89 84 82 84 84 80 82 80 78 80 81 79 81 80 86 88 89 92 94 93 93 92 92 90 88 90 85

GFSFLT2_sfc_rhum_084.txt.gz
RH
94 92 96 95 95 96 96 94 92 91 89 89 88 86 84 84 84 83 82 83 86 89 89 88 87 88 88 87 86 83 78 75
95 95 95 97 97 96 92 91 90 91 92 91 90 87 87 90 87 83 84 86 89 88 86 88 87 88 87 85 85 81 74 72
99 94 94 97 99 96 93 90 89 90 91 91 93 93 93 89 93 89 81 87 90 85 88 89 88 88 86 85 79 80 76 79
99 99 97 95 97 96 95 93 93 92 93 92 94 94 91 85 92 94 87 90 87 86 90 89 87 86 82 81 78 82 79 86
99 99 98 96 96 97 98 97 96 96 97 95 96 95 93 92 93 94 94 91 85 85 88 83 86 84 86 82 82 82 86 86
99 98 97 98 96 98 96 97 98 98 98 97 97 98 96 96 96 95 90 90 86 88 86 87 87 84 83 82 81 84 86 88
98 98 98 98 97 98 97 97 98 97 98 94 95 96 96 96 95 95 95 93 86 79 77 79 83 84 83 79 84 89 88 88
97 99 98 98 98 98 99 99 97 97 97 96 91 94 95 94 97 95 94 88 80 78 75 74 77 79 84 84 85 83 88 90
98 98 97 96 96 97 98 98 96 97 96 97 91 93 95 95 96 97 94 89 80 78 79 82 81 80 84 86 86 85 87 89
98 98 98 95 96 98 97 98 96 96 96 95 96 91 90 96 96 96 91 85 77 72 73 80 83 84 92 92 89 88 89 90
98 98 98 98 95 96 97 95 97 94 97 95 94 93 92 92 92 93 89 82 77 75 80 78 81 85 86 93 94 94 91 83
96 98 98 96 99 99 99 98 96 96 96 94 91 95 96 93 90 90 85 80 79 73 73 82 80 83 74 90 96 95 93 94
95 98 98 96 99 99 99 98 98 98 96 96 95 93 96 91 85 88 79 77 76 74 71 82 89 89 90 95 95 95 93 94
94 88 94 94 98 92 96 99 98 96 95 98 96 96 89 80 81 79 73 77 79 75 69 88 88 82 91 91 98 92 90 90
92 89 85 88 94 94 98 99 99 99 99 98 97 95 86 76 79 73 70 69 74 72 72 75 80 86 75 87 95 95 94 90
90 89 84 88 95 94 95 98 98 99 99 97 97 92 84 80 72 68 69 69 71 79 69 72 82 84 89 85 82 87 92 93
87 92 89 92 95 92 94 95 96 98 99 98 98 95 88 86 86 76 76 77 82 86 89 88 85 83 80 93 90 92 89 88
89 94 86 88 92 94 92 94 98 98 99 98 98 97 96 92 91 90 90 90 91 89 89 88 89 85 77 87 88 88 89 90
91 88 87 91 95 90 90 91 95 95 96 98 98 97 97 97 92 92 94 94 92 89 90 89 90 89 85 82 86 84 87 89
88 87 85 88 94 91 86 85 91 92 91 94 97 96 95 96 96 95 90 94 96 90 90 92 93 93 90 88 88 86 87 84

GFSFLT2_sfc_rhum_087.txt.gz
RH
86 89 86 94 95 95 96 95 93 93 92 88 85 84 84 84 82 81 82 86 87 89 91 90 90 89 89 88 86 82 58 55
88 90 91 89 92 98 96 96 94 91 92 92 90 88 88 86 85 83 82 88 89 90 91 90 90 90 88 87 85 81 55 50
91 93 90 87 93 95 95 94 92 89 90 90 90 80 80 85 88 86 86 90 91 89 90 90 90 88 87 85 77 53 51 47
93 94 93 92 95 94 91 90 84 87 85 82 85 86 85 86 89 93 94 95 92 88 91 91 80 64 66 74 53 56 51 51
94 93 93 95 96 98 98 95 93 90 91 90 88 89 92 90 92 94 95 95 96 89 82 65 67 62 59 59 59 58 54 51
92 92 95 95 96 97 98 98 95 95 92 94 95 97 97 93 84 86 92 96 94 83 70 69 69 65 64 65 61 56 55 52
92 91 94 94 95 96 97 97 96 93 94 94 94 92 96 92 85 91 97 96 94 81 69 68 68 66 63 62 63 62 62 52
84 92 96 92 94 94 96 95 96 96 95 93 92 93 93 92 87 90 91 93 88 76 67 65 63 62 64 63 62 61 60 59
83 94 94 94 92 94 96 96 97 98 97 94 92 91 90 88 93 91 93 90 76 68 67 63 65 63 63 62 60 62 63 61
80 88 91 94 92 96 96 97 98 97 96 95 92 91 87 91 95 94 95 92 68 67 63 65 64 62 67 63 63 60 61 62
82 89 92 94 88 91 95 95 97 96 96 96 91 90 89 92 95 96 94 91 71 63 64 64 65 62 60 61 62 62 63 57
77 87 91 88 88 91 94 96 97 95 95 92 88 89 92 93 93 97 95 87 71 61 68 65 66 63 56 62 64 61 60 60
80 88 90 92 95 98 98 98 97 98 95 91 90 94 94 95 94 94 92 81 68 70 70 74 68 64 68 71 70 71 69 63
83 78 87 84 82 88 90 97 96 94 94 90 92 93 96 96 94 91 86 80 74 72 72 70 67 69 64 66 80 75 68 70
84 75 76 82 81 82 88 93 97 98 98 98 95 93 94 95 91 89 80 78 73 70 70 69 75 70 67 60 80 69 71 65
80 76 74 74 77 76 83 84 91 97 95 97 98 96 97 92 90 84 78 77 74 71 65 69 74 74 72 64 63 65 65 80
83 78 74 75 88 85 85 85 90 92 99 98 97 96 92 87 84 77 75 74 77 77 78 76 73 71 66 73 67 68 70 69
86 89 78 82 86 86 84 86 89 97 99 98 98 97 94 85 80 80 76 75 78 77 78 79 82 75 66 70 65 63 65 70
91 88 77 82 87 87 86 86 85 90 98 97 97 97 97 94 88 85 85 84 86 83 81 79 83 80 77 70 64 62 63 61
87 84 75 83 85 86 86 85 88 89 91 98 96 95 94 92 91 89 92 92 92 91 84 81 84 83 79 75 70 66 65 61

GFSFLT2_sfc_rhum_090.txt.gz
RH
76 78 76 94 94 96 95 91 92 93 92 91 86 84 84 84 82 85 84 83 88 91 92 92 92 91 90 89 87 80 44 53
76 82 74 71 73 96 96 95 94 93 95 92 90 89 85 86 86 85 86 88 92 92 92 92 91 91 89 88 87 80 48 52
75 81 76 75 69 76 94 96 95 94 90 93 90 70 71 71 84 91 90 92 92 93 93 92 91 90 88 87 84 47 48 49
83 77 75 80 67 75 76 71 68 71 69 71 71 67 66 67 81 90 93 97 93 94 94 93 81 62 66 79 51 45 46 48
87 80 80 82 85 82 75 71 65 67 72 69 71 74 74 66 77 89 93 96 93 96 95 81 64 59 58 57 51 49 48 41
82 84 86 88 83 89 82 88 78 85 71 81 88 81 83 76 83 90 92 93 95 97 94 77 62 57 58 59 51 43 37 35
72 86 87 87 88 93 94 90 91 81 82 74 78 86 79 81 85 90 81 96 96 96 88 74 64 59 54 52 50 45 44 35
61 82 88 88 88 88 94 90 88 89 88 86 78 88 85 69 89 88 88 90 93 91 91 76 63 52 52 51 49 46 45 42
56 80 88 91 89 86 89 86 90 92 91 92 86 90 89 86 89 92 89 81 95 94 82 69 58 48 52 49 48 46 42 44
48 69 84 89 90 90 87 87 90 94 93 94 93 92 88 78 92 93 91 89 94 95 83 70 61 50 50 47 44 42 46 47
48 64 83 88 88 90 88 83 86 94 96 96 94 91 89 90 89 93 92 92 93 91 87 65 59 51 48 48 44 43 46 39
47 58 79 84 86 82 75 84 86 92 96 94 92 92 90 92 93 97 94 92 94 87 76 63 52 50 42 46 49 48 46 45
46 59 80 82 84 86 78 87 84 94 94 91 90 93 92 93 94 97 94 93 93 84 72 64 56 54 56 61 67 59 58 43
48 54 78 75 62 59 63 81 81 86 93 93 88 90 88 94 95 94 94 93 93 78 72 65 59 61 64 61 82 75 66 54
48 52 70 66 58 56 67 83 90 93 96 97 94 89 91 96 94 94 94 93 93 76 71 63 65 65 58 53 65 58 61 58
50 53 58 61 60 59 68 62 82 90 94 94 95 94 93 96 94 94 93 88 85 72 64 64 64 65 59 44 45 38 54 65
58 55 55 57 60 57 64 64 63 63 79 95 94 97 95 96 95 94 92 87 79 69 68 66 60 58 57 57 57 52 49 42
66 58 56 57 59 59 61 64 68 70 92 97 97 98 98 96 94 94 92 87 80 72 72 68 65 63 57 58 56 56 54 47
74 60 56 60 63 63 66 68 66 70 93 96 97 98 98 98 96 96 94 86 78 76 70 69 68 66 65 60 54 51 42 43
81 68 58 63 65 68 68 64 67 71 91 95 94 94 95 93 94 92 90 83 78 76 73 69 73 74 72 68 62 59 47 48